Flag for Bangladesh Weather past 2 weeks in Jessore, Bangladesh

Now
54 °F

Passing clouds.


Feels Like: 50 °F
Forecast: 75 / 90 °F
Wind: 10 mph from Southwest

Location: Kunming Airport

Current Time: Apr 28, 2015 at 2:57:51 AM

Latest Report: Apr 28, 2015 at 2:00 AM


Visibility: N/A

Pressure: 30.12 "Hg

Humidity: 88%

Dew point: 50 °F

Location of JessoreLocation

Historic Weather in Jessore — Graph

°F

Jessore temperature yesterday

Maximum temperature yesterday: 68 °F (at 12:00 PM)
Minimum temperature yesterday: 54 °F (at 4:00 AM)
Average temperature yesterday: 60 °F

Past Weeks' High & Low Weather Summary

 TemperatureHumidityPressure
High82 °F (Apr 17, 12:00 PM)100% (Apr 21, 10:00 PM)30.48 "Hg (Apr 21, 10:00 PM)
Low46 °F (Apr 13, 4:00 AM)14% (Apr 15, 12:00 PM)29.92 "Hg (Apr 17, 1:00 PM)
Average61 °F67%30.17 "Hg
* Reported Apr 13 1:00 AM — Apr 28 1:00 AM, Jessore, Weather by CustomWeather, © 2015

Note: Actual official high and low records may vary slightly from our data, if they occured in-between our weather recording intervals... More about our weather records

Advertising

Jessore weather history for previous 24 hours

 ConditionsComfort  
Time TempWeatherWind HumidityBarometerVisibility
1:00 AM
Tue, Apr 28
55 °FPassing clouds.10 mph82%30.15 "HgN/A
12:00 AM55 °FClear.10 mph82%30.15 "Hg10 mi
11:00 PM
Mon, Apr 27
55 °FClear.8 mph82%30.18 "Hg10 mi
10:00 PM57 °FClear.13 mph77%30.18 "Hg10 mi
9:00 PM57 °FClear.10 mph82%30.18 "Hg10 mi
8:00 PM59 °FClear.10 mph77%30.18 "Hg10 mi
7:00 PM61 °FPassing clouds.10 mph68%30.15 "HgN/A
6:00 PM61 °FPassing clouds.8 mph68%30.15 "HgN/A
5:00 PM64 °FPassing clouds.13 mph60%30.12 "HgN/A
4:00 PM66 °FPassing clouds.13 mph52%30.12 "HgN/A
3:00 PM66 °FScattered clouds.13 mph49%30.12 "HgN/A
2:00 PM68 °FScattered clouds.17 mph49%30.15 "HgN/A
1:00 PM66 °FScattered clouds.20 mph49%30.15 "HgN/A
12:00 PM68 °FPartly sunny.15 mph46%30.18 "HgN/A
11:00 AM66 °FPartly sunny.13 mph52%30.21 "HgN/A
10:00 AM63 °FScattered clouds.15 mph64%30.24 "HgN/A
9:00 AM63 °FBroken clouds.15 mph64%30.24 "HgN/A
8:00 AM63 °FScattered clouds.20 mph68%30.24 "HgN/A
7:00 AM59 °FScattered clouds.15 mph88%30.24 "Hg5 mi
6:00 AM55 °FScattered clouds.13 mph100%30.21 "Hg4 mi
5:00 AM54 °FScattered clouds.13 mph100%30.18 "Hg5 mi
4:00 AM54 °FPassing clouds.10 mph100%30.18 "Hg4 mi
3:00 AM55 °FPassing clouds.10 mph100%30.18 "HgN/A
2:00 AM55 °FPassing clouds.10 mph100%30.18 "HgN/A
Weather by CustomWeather, © 2015

See weather overviewHow to use our weather pages